This is the latest recevied weather packets stored in our database for station/object KA7EII-13. If no packets are shown the sender has not sent any weather packets the latest 10 day(s).
| Time | Temp. | Humidity | Pressure | Rain* | Wind** | Luminosity | Snow |
|---|---|---|---|---|---|---|---|
| 1777574455 | 15° C | 29% | 1110 hPa | 0 mm | - | 691 W/m² | - |
| 1777574149 | 14.44° C | 30% | 1109.7 hPa | 0 mm | - | 675 W/m² | - |
| 1777573845 | 14.44° C | 30% | 1110 hPa | 0 mm | - | 689 W/m² | - |
| 1777573540 | 13.89° C | 29% | 1110.2 hPa | 0 mm | - | 663 W/m² | - |
| 1777573237 | 14.44° C | 29% | 1110.1 hPa | 0 mm | - | 665 W/m² | - |
| 1777572933 | 13.33° C | 32% | 1110.1 hPa | 0 mm | - | 685 W/m² | - |
| 1777572629 | 14.44° C | 32% | 1110 hPa | 0 mm | - | 694 W/m² | - |
| 1777572324 | 13.89° C | 33% | 1110.1 hPa | 0 mm | - | 721 W/m² | - |
| 1777572021 | 13.89° C | 34% | 1110.3 hPa | 0 mm | - | 732 W/m² | - |
| 1777571720 | 13.33° C | 34% | 1110.3 hPa | 0 mm | - | 698 W/m² | - |
| 1777571419 | 12.78° C | 33% | 1110.5 hPa | 0 mm | - | 697 W/m² | - |
| 1777571114 | 12.78° C | 33% | 1110.3 hPa | 0 mm | - | 712 W/m² | - |
| 1777570810 | 13.89° C | 32% | 1110.3 hPa | 0 mm | - | 752 W/m² | - |
| 1777570506 | 13.33° C | 34% | 1110.6 hPa | 0 mm | - | 774 W/m² | - |
| 1777570203 | 13.33° C | 35% | 1110.3 hPa | 0 mm | - | 811 W/m² | - |
| 1777569898 | 13.33° C | 35% | 1110.7 hPa | 0 mm | - | 798 W/m² | - |
| 1777569595 | 12.78° C | 34% | 1110.7 hPa | 0 mm | - | 807 W/m² | - |
| 1777569291 | 12.78° C | 34% | 1110.5 hPa | 0 mm | - | 749 W/m² | - |
| 1777568988 | 12.78° C | 35% | 1110.9 hPa | 0 mm | - | 718 W/m² | - |
| 1777568684 | 12.22° C | 35% | 1110.9 hPa | 0 mm | - | 737 W/m² | - |
| 1777568382 | 12.22° C | 36% | 1110.8 hPa | 0 mm | - | 752 W/m² | - |
| 1777568078 | 11.11° C | 34% | 1110.9 hPa | 0 mm | - | 737 W/m² | - |
| 1777567775 | 11.67° C | 36% | 1110.7 hPa | 0 mm | - | 710 W/m² | - |
| 1777567471 | 11.67° C | 38% | 1110.8 hPa | 0 mm | - | 693 W/m² | - |
| 1777567169 | 11.67° C | 39% | 1110.9 hPa | 0 mm | - | 697 W/m² | - |
* Rain latest hour (hover to see other rain measurements)
** Current wind speed in m/s (hover to see current wind gust speed)